Weather History for Sharm El Sheikh, Egypt

Change the Weather History Date:

Tuesday, August 6, 2013

  Actual Average Record
Temperature  
Mean Temperature 94 °F -  
Max Temperature 107 °F - - ()
Min Temperature 82 °F - - ()
Cooling Degree Days 30    
Growing Degree Days 44 (Base 50)    
Moisture  
Dew Point 58 °F    
Average Humidity 37    
Maximum Humidity 66    
Minimum Humidity 11    
Precipitation  
Precipitation 0.00 in - - ()
Sea Level Pressure  
Sea Level Pressure 29.65 in    
Wind  
Wind Speed 6 mph ()    
Max Wind Speed 13 mph    
Max Gust Speed -    
T = Trace of Precipitation, MM = Missing Value Source: Averaged Metar Reports

Daily Weather History Graph

Daily Weather History Graph

Search for Another Location

Airport:

Trip Planner

Search our weather history database for the weather conditions in past years. The results will help you decide how hot, cold, wet, or windy it might be!

Date:

Astronomy

Aug. 06, 2013 Rise Set
Actual Time 5:07 AM EET 6:28 PM EET
Civil Twilight 4:42 AM EET 6:53 PM EET
Nautical Twilight 4:12 AM EET 7:23 PM EET
Astronomical Twilight 3:41 AM EET 7:54 PM EET
Moon 4:35 AM EET (8/6) 5:57 PM EET (8/6)
Length of Visible Light 14h 10m
Length of Day
13h 20m
Waning Crescent, 0% of the Moon is Illuminated
Aug 6
Waning Crescent
Aug 6
New
Aug 14
First Quarter
Aug 21
Full
Aug 28
Last Quarter

Hourly Weather History & Observations

Time (EET) Temp. Heat Index Dew Point Humidity Pressure Visibility Wind Dir Wind Speed Gust Speed Precip Events Conditions
12:00 AM 84.2 °F 83.8 °F 59.0 °F 42% 29.65 in - Variable 2.3 mph - N/A   Clear
1:00 AM 82.4 °F 82.0 °F 57.2 °F 42% 29.65 in - NNW 2.3 mph - N/A   Clear
2:00 AM 82.4 °F - 48.2 °F 30% 29.65 in - North 3.5 mph - N/A   Clear
3:00 AM 84.2 °F - 51.8 °F 33% 29.65 in - North 2.3 mph - N/A   Clear
4:00 AM 84.2 °F 85.6 °F 64.4 °F 51% 29.65 in - North 10.4 mph - N/A   Clear
5:00 AM 82.4 °F 84.6 °F 66.2 °F 58% 29.65 in - North 9.2 mph - N/A   Clear
6:00 AM 84.2 °F 87.3 °F 68.0 °F 58% 29.65 in - North 8.1 mph - N/A   Clear
7:00 AM 89.6 °F 93.4 °F 68.0 °F 49% 29.68 in - North 8.1 mph - N/A   Clear
8:00 AM 91.4 °F 91.4 °F 60.8 °F 36% 29.68 in - NNE 9.2 mph - N/A   Clear
9:00 AM 95.0 °F 92.7 °F 53.6 °F 25% 29.68 in - NNE 12.7 mph - N/A   Clear
10:00 AM 96.8 °F - 50.0 °F 20% 29.68 in - NNE 11.5 mph - N/A   Clear
11:00 AM 98.6 °F - 48.2 °F 18% 29.68 in - NNE 10.4 mph - N/A   Clear
12:00 PM 100.4 °F - 41.0 °F 13% 29.68 in - NNE 11.5 mph - N/A   Clear
1:00 PM 104.0 °F - 42.8 °F 12% 29.65 in - NNE 9.2 mph - N/A   Clear
2:00 PM 107.6 °F - 42.8 °F 11% 29.65 in - East 5.8 mph - N/A   Clear
3:00 PM 100.4 °F 98.8 °F 55.4 °F 22% 29.65 in - SSE 9.2 mph - N/A   Clear
4:00 PM 98.6 °F 97.2 °F 55.4 °F 24% 29.62 in - SSE 8.1 mph - N/A   Clear
5:00 PM 95.0 °F 97.0 °F 64.4 °F 36% 29.62 in - South 8.1 mph - N/A   Clear
6:00 PM 93.2 °F 94.1 °F 62.6 °F 36% 29.62 in - South 4.6 mph - N/A   Clear
7:00 PM 91.4 °F 93.2 °F 64.4 °F 41% 29.62 in - SE 5.8 mph - N/A   Clear
8:00 PM 87.8 °F 89.4 °F 64.4 °F 46% 29.65 in - Variable 3.5 mph - N/A   Clear
9:00 PM 86.0 °F 91.8 °F 71.6 °F 62% 29.65 in - South 5.8 mph - N/A   Clear
10:00 PM 84.2 °F 89.6 °F 71.6 °F 66% 29.65 in - South 4.6 mph - N/A   Clear
11:00 PM 84.2 °F 89.6 °F 71.6 °F 66% 29.65 in - South 3.5 mph - N/A   Clear